Location: �perlecques
(50.8057°N, 2.1521°E)
Time: 05:02:45
(UTC+00:00)

Cosmos 2061 Rocket - Pass Details

Date: 09 April 2020
Orbit: 967 x 1012 km, 82.9° (Epoch: 01 June)

Event Time Altitude Azimuth Distance (km) Brightness Sun altitude
Rises 23:22:27 0° 350° (N) 3,686 8.2 -30.8°
Reaches altitude 10° 23:24:57 10° 351° (N) 2,740 7.2 -30.9°
Enters shadow 23:30:55 79° 33° (NNE) 1,011 4.0 -31.0°
